TimeAKST,TemperatureF,Dew PointF,Humidity,Sea Level PressureIn,VisibilityMPH,Wind Direction,Wind SpeedMPH,Gust SpeedMPH,PrecipitationIn,Events,Conditions,WindDirDegrees,DateUTC
12:16 AM,30.2,19.4,64,30.16,10.0,WSW,17.3,-,N/A,,Clear,250,2012-12-11 09:16:00
12:36 AM,30.2,19.4,64,30.18,10.0,WSW,11.5,16.1,N/A,,Clear,240,2012-12-11 09:36:00
12:56 AM,30.2,19.4,64,30.18,10.0,WSW,13.8,-,N/A,,Clear,240,2012-12-11 09:56:00
1:16 AM,30.2,19.4,64,30.18,10.0,WSW,10.4,18.4,N/A,,Clear,250,2012-12-11 10:16:00
1:36 AM,30.2,19.4,64,30.16,10.0,West,6.9,-,N/A,,Clear,280,2012-12-11 10:36:00
1:56 AM,30.2,19.4,64,30.15,10.0,East,4.6,-,N/A,,Clear,100,2012-12-11 10:56:00
2:16 AM,30.2,17.6,60,30.14,10.0,North,3.5,-,N/A,,Mostly Cloudy,10,2012-12-11 11:16:00
2:36 AM,30.2,17.6,60,30.14,10.0,NNE,4.6,-,N/A,,Mostly Cloudy,20,2012-12-11 11:36:00
2:56 AM,30.2,17.6,60,30.13,10.0,NE,4.6,-,N/A,,Partly Cloudy,50,2012-12-11 11:56:00
3:16 AM,30.2,17.6,60,30.13,10.0,Calm,Calm,-,N/A,,Mostly Cloudy,0,2012-12-11 12:16:00
3:36 AM,30.2,19.4,64,30.13,10.0,Calm,Calm,-,N/A,,Overcast,0,2012-12-11 12:36:00
3:56 AM,30.2,19.4,64,30.12,10.0,NE,3.5,-,N/A,,Overcast,40,2012-12-11 12:56:00
4:16 AM,30.2,21.2,69,30.11,10.0,ENE,3.5,-,N/A,,Overcast,60,2012-12-11 13:16:00
4:36 AM,30.2,21.2,69,30.08,10.0,Calm,Calm,-,N/A,,Mostly Cloudy,0,2012-12-11 13:36:00
4:56 AM,30.2,19.4,64,30.07,10.0,Calm,Calm,-,N/A,,Mostly Cloudy,0,2012-12-11 13:56:00
5:16 AM,30.2,21.2,69,30.06,10.0,Calm,Calm,-,N/A,,Mostly Cloudy,0,2012-12-11 14:16:00
5:36 AM,30.2,21.2,69,30.06,10.0,SSE,3.5,-,N/A,,Overcast,150,2012-12-11 14:36:00
5:56 AM,30.2,21.2,69,30.05,10.0,Calm,Calm,-,N/A,,Mostly Cloudy,0,2012-12-11 14:56:00
6:16 AM,30.2,21.2,69,30.04,10.0,SSE,3.5,-,N/A,,Overcast,150,2012-12-11 15:16:00
6:36 AM,30.2,21.2,69,30.02,10.0,Calm,Calm,-,N/A,,Mostly Cloudy,0,2012-12-11 15:36:00
6:56 AM,28.4,21.2,74,30.02,10.0,SSE,3.5,-,N/A,,Partly Cloudy,160,2012-12-11 15:56:00
7:16 AM,30.2,21.2,69,30.01,10.0,Calm,Calm,-,N/A,,Partly Cloudy,0,2012-12-11 16:16:00
7:36 AM,28.4,21.2,74,30.00,10.0,Calm,Calm,-,N/A,,Scattered Clouds,0,2012-12-11 16:36:00
7:56 AM,30.2,21.2,69,30.00,10.0,Calm,Calm,-,N/A,,Overcast,0,2012-12-11 16:56:00
8:16 AM,30.2,23.0,75,29.98,10.0,Calm,Calm,-,N/A,,Overcast,0,2012-12-11 17:16:00
8:36 AM,30.2,23.0,75,29.98,10.0,SSE,3.5,-,N/A,,Overcast,160,2012-12-11 17:36:00
8:56 AM,30.2,24.8,80,29.97,10.0,Calm,Calm,-,N/A,,Overcast,0,2012-12-11 17:56:00
9:16 AM,30.2,24.8,80,29.97,10.0,Calm,Calm,-,N/A,,Overcast,0,2012-12-11 18:16:00
9:36 AM,30.2,24.8,80,29.96,10.0,South,3.5,-,N/A,,Overcast,170,2012-12-11 18:36:00
9:56 AM,30.2,24.8,80,29.96,10.0,South,4.6,-,N/A,,Mostly Cloudy,170,2012-12-11 18:56:00
10:16 AM,30.2,24.8,80,29.95,10.0,South,3.5,-,N/A,,Mostly Cloudy,170,2012-12-11 19:16:00
10:36 AM,32.0,26.6,80,29.97,10.0,SSE,4.6,-,N/A,,Overcast,150,2012-12-11 19:36:00
10:56 AM,33.8,26.6,75,29.96,10.0,Calm,Calm,-,N/A,,Overcast,0,2012-12-11 19:56:00
11:16 AM,33.8,28.4,81,29.96,10.0,Calm,Calm,-,N/A,,Scattered Clouds,0,2012-12-11 20:16:00
11:36 AM,33.8,28.4,81,29.96,10.0,Calm,Calm,-,N/A,,Clear,0,2012-12-11 20:36:00
11:56 AM,33.8,28.4,81,29.96,10.0,NNE,3.5,-,N/A,,Mostly Cloudy,30,2012-12-11 20:56:00
12:16 PM,33.8,28.4,81,29.95,10.0,Calm,Calm,-,N/A,,Overcast,0,2012-12-11 21:16:00
12:36 PM,33.8,28.4,81,29.94,10.0,NNE,3.5,-,N/A,,Overcast,20,2012-12-11 21:36:00
12:56 PM,33.8,28.4,81,29.95,10.0,North,3.5,-,N/A,,Overcast,350,2012-12-11 21:56:00
1:16 PM,33.8,28.4,81,29.90,10.0,WSW,6.9,-,N/A,,Overcast,240,2012-12-11 22:16:00
1:36 PM,35.6,28.4,75,29.91,10.0,ENE,4.6,-,N/A,,Overcast,60,2012-12-11 22:36:00
1:56 PM,35.6,28.4,75,29.91,10.0,North,10.4,-,N/A,,Mostly Cloudy,350,2012-12-11 22:56:00
2:16 PM,35.6,28.4,75,29.91,10.0,SE,4.6,-,N/A,,Mostly Cloudy,130,2012-12-11 23:16:00
2:36 PM,35.6,30.2,81,29.89,10.0,Calm,Calm,-,N/A,,Mostly Cloudy,0,2012-12-11 23:36:00
2:56 PM,35.6,30.2,81,29.88,10.0,Calm,Calm,-,N/A,,Overcast,0,2012-12-11 23:56:00
3:16 PM,35.6,30.2,81,29.87,10.0,South,3.5,-,N/A,,Overcast,190,2012-12-12 00:16:00
3:36 PM,35.6,30.2,81,29.86,10.0,SSE,3.5,-,N/A,,Overcast,150,2012-12-12 00:36:00
3:56 PM,35.6,30.2,81,29.85,10.0,NNE,3.5,-,N/A,,Overcast,20,2012-12-12 00:56:00
4:16 PM,35.6,30.2,81,29.84,10.0,Calm,Calm,-,N/A,,Overcast,0,2012-12-12 01:16:00
4:36 PM,33.8,30.2,87,29.83,10.0,NE,3.5,-,N/A,,Overcast,50,2012-12-12 01:36:00
4:56 PM,35.6,30.2,81,29.83,10.0,Calm,Calm,-,N/A,,Overcast,0,2012-12-12 01:56:00
5:16 PM,35.6,30.2,81,29.80,10.0,Calm,Calm,-,N/A,,Overcast,0,2012-12-12 02:16:00
5:36 PM,35.6,30.2,81,29.80,10.0,NNE,4.6,-,N/A,,Overcast,20,2012-12-12 02:36:00
5:56 PM,35.6,30.2,81,29.78,10.0,NNE,12.7,-,N/A,,Overcast,20,2012-12-12 02:56:00
6:16 PM,35.6,32.0,87,29.77,10.0,Calm,Calm,-,N/A,,Overcast,0,2012-12-12 03:16:00
6:36 PM,37.4,32.0,81,29.77,10.0,NNE,11.5,-,N/A,,Overcast,20,2012-12-12 03:36:00
6:56 PM,37.4,32.0,81,29.76,10.0,NNE,10.4,-,N/A,,Overcast,30,2012-12-12 03:56:00
7:16 PM,39.2,33.8,81,29.73,10.0,NE,13.8,21.9,N/A,,Overcast,40,2012-12-12 04:16:00
7:36 PM,42.8,33.8,70,29.73,10.0,NNE,9.2,16.1,N/A,,Overcast,20,2012-12-12 04:36:00
7:56 PM,42.8,33.8,70,29.72,10.0,Calm,Calm,-,N/A,,Overcast,0,2012-12-12 04:56:00
8:16 PM,42.8,33.8,70,29.71,10.0,NE,8.1,-,N/A,,Overcast,40,2012-12-12 05:16:00
8:36 PM,44.6,33.8,66,29.70,10.0,East,11.5,17.3,N/A,,Overcast,100,2012-12-12 05:36:00
8:56 PM,44.6,33.8,66,29.69,10.0,East,4.6,-,N/A,,Overcast,90,2012-12-12 05:56:00
9:16 PM,44.6,35.6,71,29.69,10.0,North,4.6,-,N/A,,Overcast,360,2012-12-12 06:16:00
9:36 PM,42.8,33.8,70,29.67,10.0,ENE,3.5,-,N/A,,Overcast,60,2012-12-12 06:36:00
9:56 PM,42.8,33.8,70,29.66,10.0,NNE,4.6,23.0,N/A,,Overcast,20,2012-12-12 06:56:00
10:16 PM,44.6,35.6,71,29.63,10.0,SW,17.3,26.5,N/A,,Overcast,220,2012-12-12 07:16:00
10:36 PM,46.4,33.8,62,29.62,10.0,NE,13.8,27.6,N/A,,Overcast,50,2012-12-12 07:36:00
10:56 PM,42.8,33.8,70,29.62,10.0,NNE,13.8,-,N/A,,Overcast,20,2012-12-12 07:56:00
11:16 PM,42.8,35.6,76,29.59,10.0,NNE,12.7,-,N/A,,Mostly Cloudy,30,2012-12-12 08:16:00
11:56 PM,41.0,33.8,76,29.59,10.0,NNE,5.8,-,N/A,,Overcast,20,2012-12-12 08:56:00